Location: Norway
(63.2336°N, 9.9976°E)
Time: 11:34:17
(UTC+01:00)

Envisat - Visible Passes

Search period start: 21 February 2020 00:00
Search period end: 02 March 2020 00:00
Orbit: 764 x 766 km, 98.1° (Epoch: 20 February)

Date Brightness Start Highest point End Pass type
(mag) Time Alt. Az. Time Alt. Az. Time Alt. Az.
21 Feb 6.2 05:27:20 10° NE 05:30:28 16° E 05:33:35 10° ESE visible
21 Feb 3.8 07:05:33 10° NNE 07:10:36 59° ESE 07:15:38 10° S visible
21 Feb 4.6 18:32:11 10° SSW 18:36:58 40° W 18:41:46 10° NNW visible
21 Feb 6.6 20:16:22 10° W 20:17:29 11° WNW 20:18:36 10° WNW visible
22 Feb 4.9 06:28:51 10° NNE 06:33:34 36° E 06:38:14 10° SSE visible
22 Feb 6.1 19:36:35 10° SW 19:40:00 18° W 19:43:26 10° NW visible
23 Feb 5.7 05:52:22 10° NE 05:56:21 22° E 06:00:19 10° SE visible
23 Feb 5.3 18:58:19 10° SSW 19:02:42 28° W 19:07:07 10° NNW visible
24 Feb 6.4 05:16:21 10° NE 05:18:58 14° ENE 05:21:34 10° ESE visible
24 Feb 4.1 06:54:16 10° NNE 06:59:14 51° E 07:04:12 10° S visible
24 Feb 4.3 18:20:41 10° S 18:25:35 46° W 18:30:30 10° NNW visible
24 Feb 6.4 20:03:49 10° W 20:05:57 12° WNW 20:08:06 10° NW visible
25 Feb 5.2 06:17:36 10° NNE 06:22:09 31° E 06:26:40 10° SSE visible
25 Feb 5.9 19:24:45 10° SW 19:28:32 20° W 19:32:19 10° NW visible
26 Feb 6.0 05:41:13 10° NE 05:44:54 20° E 05:48:33 10° SE visible
26 Feb 5.1 18:46:42 10° SSW 18:51:16 33° W 18:55:53 10° NNW visible
27 Feb 6.6 05:05:33 10° NE 05:07:26 12° ENE 05:09:20 10° E visible
27 Feb 4.5 06:42:58 10° NNE 06:47:52 44° E 06:52:43 10° S visible
27 Feb 4.0 18:09:13 10° S 18:14:12 53° W 18:19:13 10° NNW visible
27 Feb 6.3 19:51:39 10° WSW 19:54:26 15° WNW 19:57:14 10° NW visible
28 Feb 5.5 06:06:23 10° NNE 06:10:44 27° E 06:15:03 10° SSE visible
28 Feb 5.7 19:13:00 10° SW 19:17:04 24° W 19:21:09 10° NNW visible
29 Feb 6.2 05:30:07 10° NE 05:33:25 17° E 05:36:42 10° ESE visible
29 Feb 4.8 18:35:09 10° SSW 18:39:52 38° W 18:44:38 10° NNW visible
01 Mar 6.8 04:55:36 10° ENE 04:55:54 10° ENE 04:56:14 10° ENE visible
01 Mar 4.8 06:31:43 10° NNE 06:36:29 38° E 06:41:12 10° SSE visible
01 Mar 6.2 19:39:41 10° WSW 19:42:57 17° W 19:46:13 10° NW visible
